When you browse on this site, cookies collect data to enhance your experience and personalize the content and advertising you see.
Visit our Privacy Policy to learn more. By continuing to use the site, you agree to this use of cookies and data.
  • In Hungary
  • List of Countries
  • For 7 days
  • Water Temperature
  • Weather Map
  • News
  • Weather Widgets
  • user-avatar
    Login

    Hourly Weather Worgl

    Today, 13 December, Friday

    Time Temperature Precipitation Wind Pressure Humidity
    00:00 -2°C° 0 mm 2 mps 700 mmHg 78%
    01:00 -1°C° 0 mm 3 mps 700 mmHg 69%
    02:00 -1°C° 0 mm 3 mps 699 mmHg 67%
    03:00 -1°C° 0 mm 3 mps 698 mmHg 66%
    04:00 -1°C° 0 mm 3 mps 697 mmHg 64%
    05:00 -1°C° 0 mm 3 mps 696 mmHg 64%
    06:00 -1°C° 0 mm 3 mps 695 mmHg 64%
    07:00 -1°C° 0 mm 3 mps 695 mmHg 64%
    08:00 0°C° 0 mm 3 mps 694 mmHg 61%
    09:00 0°C° 0 mm 4 mps 693 mmHg 59%
    10:00 0°C° 0 mm 4 mps 692 mmHg 57%
    11:00 +2°C° 0.2 mm 3 mps 692 mmHg 60%
    12:00 +3°C° 0.2 mm 2 mps 692 mmHg 64%
    13:00 +3°C° 0.2 mm 2 mps 692 mmHg 68%
    14:00 +4°C° 0.7 mm 1 mps 692 mmHg 75%
    15:00 +3°C° 0.7 mm 1 mps 693 mmHg 82%
    16:00 +3°C° 0.7 mm 1 mps 693 mmHg 89%
    17:00 +3°C° 0.1 mm 1 mps 694 mmHg 89%
    18:00 +3°C° 0.1 mm 1 mps 694 mmHg 88%
    19:00 +3°C° 0.1 mm 1 mps 695 mmHg 87%
    20:00 +2°C° 0 mm 1 mps 696 mmHg 86%
    21:00 +2°C° 0 mm 1 mps 696 mmHg 84%
    22:00 +2°C° 0 mm 1 mps 697 mmHg 83%
    23:00 +2°C° 0 mm 1 mps 698 mmHg 80%

    Tomorrow, 14 December, Saturday

    Time Temperature Precipitation Wind Pressure Humidity
    00:00 +2°C° 0 mm 1 mps 699 mmHg 77%
    01:00 +2°C° 0 mm 1 mps 700 mmHg 74%
    02:00 +2°C° 0 mm 1 mps 700 mmHg 74%
    03:00 -1°C° 0 mm 2 mps 700 mmHg 73%
    04:00 -1°C° 0 mm 2 mps 700 mmHg 72%
    05:00 -1°C° 0 mm 2 mps 701 mmHg 68%
    06:00 +1°C° 0 mm 2 mps 701 mmHg 64%
    07:00 +2°C° 0 mm 2 mps 702 mmHg 60%
    08:00 +3°C° 0.2 mm 2 mps 702 mmHg 60%
    09:00 +4°C° 0.2 mm 2 mps 703 mmHg 61%
    10:00 +5°C° 0.2 mm 2 mps 703 mmHg 62%
    11:00 +6°C° 0 mm 2 mps 704 mmHg 64%
    12:00 +7°C° 0 mm 2 mps 704 mmHg 67%
    13:00 +8°C° 0 mm 2 mps 705 mmHg 69%
    14:00 +7°C° 0 mm 2 mps 705 mmHg 73%
    15:00 +6°C° 0 mm 2 mps 706 mmHg 76%
    16:00 +6°C° 0 mm 1 mps 706 mmHg 80%
    17:00 +5°C° 0 mm 2 mps 707 mmHg 77%
    18:00 +5°C° 0 mm 2 mps 707 mmHg 74%
    19:00 +4°C° 0 mm 2 mps 708 mmHg 71%
    20:00 +5°C° 0 mm 2 mps 708 mmHg 68%
    21:00 +5°C° 0 mm 2 mps 709 mmHg 65%
    22:00 +6°C° 0 mm 2 mps 710 mmHg 62%
    23:00 +5°C° 0 mm 2 mps 710 mmHg 61%

    Day after tomorrow, 15 December, Sunday

    Time Temperature Precipitation Wind Pressure Humidity
    00:00 +5°C° 0 mm 2 mps 709 mmHg 61%
    01:00 +5°C° 0 mm 2 mps 709 mmHg 61%
    02:00 +5°C° 0 mm 2 mps 709 mmHg 61%
    03:00 +4°C° 0 mm 2 mps 709 mmHg 61%
    04:00 +4°C° 0 mm 2 mps 709 mmHg 61%
    05:00 +4°C° 0 mm 2 mps 709 mmHg 61%
    06:00 +4°C° 0 mm 2 mps 710 mmHg 61%
    07:00 +4°C° 0 mm 2 mps 710 mmHg 61%
    08:00 +5°C° 0 mm 2 mps 710 mmHg 61%
    09:00 +6°C° 0 mm 2 mps 711 mmHg 61%
    10:00 +7°C° 0 mm 2 mps 711 mmHg 61%
    11:00 +9°C° 0 mm 1 mps 711 mmHg 63%
    12:00 +9°C° 0 mm 1 mps 711 mmHg 65%
    13:00 +10°C° 0 mm 1 mps 711 mmHg 67%
    14:00 +9°C° 0 mm 1 mps 712 mmHg 69%
    15:00 +8°C° 0 mm 1 mps 712 mmHg 70%
    16:00 +7°C° 0 mm 1 mps 712 mmHg 72%
    17:00 +6°C° 0 mm 1 mps 713 mmHg 72%
    18:00 +6°C° 0 mm 1 mps 713 mmHg 73%
    19:00 +4°C° 0 mm 2 mps 714 mmHg 73%
    20:00 +4°C° 0 mm 2 mps 714 mmHg 73%
    21:00 +4°C° 0 mm 2 mps 714 mmHg 73%
    22:00 +4°C° 0 mm 2 mps 715 mmHg 73%
    23:00 +4°C° 0 mm 2 mps 715 mmHg 73%

    16 December, Monday

    Time Temperature Precipitation Wind Pressure Humidity
    00:00 +4°C° 0 mm 2 mps 715 mmHg 73%
    01:00 +4°C° 0 mm 2 mps 715 mmHg 73%
    02:00 +4°C° 0 mm 2 mps 715 mmHg 73%
    03:00 +3°C° 0 mm 3 mps 715 mmHg 73%
    04:00 +3°C° 0 mm 3 mps 715 mmHg 74%
    05:00 +3°C° 0 mm 3 mps 714 mmHg 74%
    06:00 +3°C° 0 mm 3 mps 714 mmHg 75%
    07:00 +3°C° 0 mm 3 mps 714 mmHg 75%
    08:00 +4°C° 0 mm 3 mps 714 mmHg 74%
    09:00 +5°C° 0 mm 3 mps 714 mmHg 73%
    10:00 +7°C° 0 mm 3 mps 714 mmHg 73%
    11:00 +8°C° 0 mm 3 mps 714 mmHg 73%
    12:00 +9°C° 0 mm 3 mps 714 mmHg 73%
    13:00 +9°C° 0 mm 3 mps 713 mmHg 74%
    14:00 +9°C° 0 mm 3 mps 713 mmHg 76%
    15:00 +8°C° 0 mm 3 mps 713 mmHg 77%
    16:00 +8°C° 0 mm 3 mps 713 mmHg 79%
    17:00 +6°C° 0 mm 4 mps 713 mmHg 79%
    18:00 +6°C° 0 mm 4 mps 713 mmHg 79%
    19:00 +6°C° 0 mm 4 mps 713 mmHg 79%
    20:00 +6°C° 0 mm 4 mps 713 mmHg 79%
    21:00 +6°C° 0 mm 4 mps 713 mmHg 79%
    22:00 +6°C° 0 mm 4 mps 713 mmHg 79%
    23:00 +6°C° 0 mm 4 mps 713 mmHg 79%

    17 December, Tuesday

    Time Temperature Precipitation Wind Pressure Humidity
    00:00 +6°C° 0 mm 4 mps 712 mmHg 78%
    01:00 +6°C° 0 mm 4 mps 712 mmHg 78%
    02:00 +6°C° 0 mm 4 mps 712 mmHg 77%
    03:00 +6°C° 0 mm 4 mps 712 mmHg 77%
    04:00 +6°C° 0 mm 4 mps 712 mmHg 76%
    05:00 +6°C° 0 mm 4 mps 712 mmHg 76%
    06:00 +6°C° 0 mm 4 mps 712 mmHg 76%
    07:00 +6°C° 0 mm 4 mps 712 mmHg 75%
    08:00 +7°C° 0 mm 4 mps 712 mmHg 75%
    09:00 +7°C° 0 mm 4 mps 712 mmHg 74%
    10:00 +8°C° 0 mm 4 mps 713 mmHg 73%
    11:00 +8°C° 0 mm 4 mps 712 mmHg 74%
    12:00 +10°C° 0 mm 3 mps 712 mmHg 75%
    13:00 +11°C° 0 mm 3 mps 712 mmHg 76%
    14:00 +10°C° 0 mm 3 mps 712 mmHg 77%
    15:00 +10°C° 0 mm 3 mps 712 mmHg 79%
    16:00 +9°C° 0 mm 3 mps 712 mmHg 81%
    17:00 +9°C° 0 mm 3 mps 712 mmHg 80%
    18:00 +8°C° 0 mm 3 mps 712 mmHg 80%
    19:00 +8°C° 0 mm 3 mps 712 mmHg 80%
    20:00 +8°C° 0 mm 3 mps 712 mmHg 80%
    21:00 +8°C° 0 mm 3 mps 712 mmHg 80%
    22:00 +8°C° 0 mm 3 mps 713 mmHg 79%
    23:00 +8°C° 0 mm 3 mps 713 mmHg 79%

    18 December, Wednesday

    Time Temperature Precipitation Wind Pressure Humidity
    00:00 +8°C° 0 mm 3 mps 713 mmHg 79%
    01:00 +8°C° 0 mm 3 mps 713 mmHg 79%
    02:00 +7°C° 0 mm 3 mps 713 mmHg 79%
    03:00 +7°C° 0 mm 3 mps 713 mmHg 79%
    04:00 +7°C° 0 mm 3 mps 713 mmHg 79%
    05:00 +7°C° 0 mm 3 mps 713 mmHg 79%
    06:00 +7°C° 0 mm 3 mps 713 mmHg 79%
    07:00 +7°C° 0 mm 3 mps 713 mmHg 79%
    08:00 +8°C° 0 mm 3 mps 713 mmHg 78%
    09:00 +8°C° 0 mm 3 mps 713 mmHg 77%
    10:00 +9°C° 0 mm 3 mps 713 mmHg 76%
    11:00 +10°C° 0 mm 3 mps 713 mmHg 76%
    12:00 +10°C° 0 mm 2 mps 713 mmHg 76%
    13:00 +12°C° 0 mm 2 mps 713 mmHg 76%
    14:00 +10°C° 0 mm 2 mps 713 mmHg 76%
    15:00 +10°C° 0 mm 2 mps 712 mmHg 77%
    16:00 +9°C° 0 mm 2 mps 712 mmHg 78%
    17:00 +8°C° 0 mm 2 mps 712 mmHg 78%
    18:00 +8°C° 0 mm 3 mps 712 mmHg 78%
    19:00 +7°C° 0 mm 3 mps 712 mmHg 77%
    20:00 +7°C° 0 mm 3 mps 712 mmHg 78%
    21:00 +7°C° 0 mm 3 mps 712 mmHg 78%
    22:00 +7°C° 0 mm 3 mps 712 mmHg 79%
    23:00 +7°C° 0 mm 2 mps 711 mmHg 80%
    Show more